Regional Weather Roundup
Issued by NWS Green Bay, WI

Home | Current Version | Previous Version | Graphics & Text | Print | Product List | Glossary Off
Versions: 1 2 3 4 5 6 7 8 9 10 11 12 13 14 15 16 17 18 19 20 21 22 23 24 25 26 27 28 29 30 31 32 33 34 35 36 37 38 39 40 41 42 43 44 45 46 47 48 49 50

000
ASUS43 KGRB 301300
RWRGRB

NORTH-CENTRAL AND NORTHEAST WISCONSIN REGIONAL WEATHER ROUNDUP
NATIONAL WEATHER SERVICE GREEN BAY WI
800 AM CDT THU JUL 30 2015

WIZ005-009-010>012-018-019-301400-
NORTH CENTRAL WISCONSIN

CITY           SKY/WX    TMP DP  RH WIND       PRES   REMARKS
IRONWOOD       SUNNY     66  55  68 W16       29.90R
MANITOWISH WTR NOT AVBL
ARBOR VITAE    NOT AVBL
EAGLE RIVER    NOT AVBL
LAND O LAKES   NOT AVBL
RHINELANDER    SUNNY     66  55  67 W13       29.96S
PHILLIPS       NOT AVBL
ANTIGO         NOT AVBL
TOMAHAWK       NOT AVBL
MERRILL        NOT AVBL
$$

WIZ013-073-301400-
NORTHEAST WISCONSIN

CITY           SKY/WX    TMP DP  RH WIND       PRES   REMARKS
IRON MOUNTAIN  SUNNY     69  54  58 W10G23    29.87R
MARINETTE      SUNNY     68  54  60 W7        29.89S
$$

WIZ017-030-035>037-045-301400-
CENTRAL WISCONSIN

CITY           SKY/WX    TMP DP  RH WIND       PRES   REMARKS
MEDFORD        NOT AVBL
WAUSAU         SUNNY     68  56  65 W12       29.97R
MOSINEE        SUNNY     66  57  72 W8        30.00R
MARSHFIELD     SUNNY     67  55  65 W8        30.00S
WISC RAPIDS    SUNNY     69  55  60 W10       30.01S
STEVENS POINT  NOT AVBL
WAUPACA        NOT AVBL
SHAWANO        NOT AVBL
CLINTONVILLE   NOT AVBL
$$

WIZ038-039-048-051-301400-
FOX VALLEY

CITY           SKY/WX    TMP DP  RH WIND       PRES   REMARKS
NWS GREEN BAY  SUNNY     70  58  65 W9        29.95S
APPLETON       SUNNY     66  55  68 W10       29.98R
OSHKOSH        SUNNY     70  56  61 W9        29.98R
FOND DU LAC    SUNNY     70  57  63 W12       30.00R
$$

WIZ022-050-052-301400-
EAST CENTRAL WISCONSIN

CITY           SKY/WX    TMP DP  RH WIND       PRES   REMARKS
STURGEON BAY   SUNNY     70  55  60 W14       29.94R
MANITOWOC      NOT AVBL
SHEBOYGAN      SUNNY     71  58  63 W12       29.98R
$$

LMZ563-521-522-541>543-301400-
LAKESHORE

STATION/POSITION TIME  TEMP    WIND        PRES    VSBY  WAVE
                       AIR SEA DIR/SP/G                  HT/PER
                 (UTC) (F)     (DEG/KT/KT) (MB)    (MI)  (FT/S)
SHEBOYGAN LKSHOR 1200   69     270/ 10/ 14 1014.7R
ALGOMA MARINA    1212          300/  7/ 11   N/A
TWO RIVERS CG    1239   71                 1014.4      6   2
NORTHPORT PIER   1200   70     270/  8/ 20 1011.5R
N MID LAKE BUOY  1150   70 69  260/ 19/ 23 1010.0R         4/ 5
S GREEN BAY BUOY 1200   63 64  240/ 12/ 14 1014.5R
SISTER BAY LKSHO 1214   72     320/ 21/ 25   N/A
STURGEON BAY CG  1208   70     250/  9     1012.8      6   1
CHAMBERS ISLAND  1200   67     220/  7/ 16 1011.9R
$$


USA.gov is the U.S. government's official web portal to all federal, state and local government web resources and services.